IRIDIUM 106 1 41917U 17003A 26071.67539551 .00000095 00000+0 26994-4 0 9997 2 41917 86.3973 128.9144 0002123 106.5609 253.5820 14.34217093479373 IRIDIUM 103 1 41918U 17003B 26071.66271074 .00000249 00000+0 82022-4 0 9995 2 41918 86.3976 128.8198 0001969 88.2343 271.9078 14.34217638479399 IRIDIUM 109 1 41919U 17003C 26071.66905391 -.00000033 00000+0 -18858-4 0 9991 2 41919 86.3974 128.8746 0002028 95.0143 265.1285 14.34217278479360 IRIDIUM 102 1 41920U 17003D 26071.70710991 .00000042 00000+0 79081-5 0 9992 2 41920 86.3968 128.7847 0002277 95.9753 264.1703 14.34217721479455 IRIDIUM 105 1 41921U 17003E 26071.60272792 .00000174 00000+0 54714-4 0 9995 2 41921 86.3917 97.2739 0002201 91.6748 268.4700 14.34401677481298 IRIDIUM 104 1 41922U 17003F 26071.65002690 -.00000019 00000+0 -13693-4 0 9990 2 41922 86.3977 128.8495 0002182 87.6132 272.5314 14.34217294479435 IRIDIUM 114 1 41923U 17003G 26071.65636676 .00000232 00000+0 75721-4 0 9993 2 41923 86.3974 128.8304 0002129 90.5021 269.6419 14.34218624479412 IRIDIUM 108 1 41924U 17003H 26071.61488923 .00000041 00000+0 77472-5 0 9994 2 41924 86.3912 97.1583 0002370 94.5547 265.5919 14.34217184481263 IRIDIUM 112 1 41925U 17003J 26071.64368404 .00000088 00000+0 24429-4 0 9993 2 41925 86.3971 128.6827 0002250 92.1204 268.0249 14.34217629479435 IRIDIUM 111 1 41926U 17003K 26071.70076642 -.00000003 00000+0 -81478-5 0 9998 2 41926 86.3972 128.7265 0001985 94.7699 265.3724 14.34217603479423 IRIDIUM 113 1 42803U 17039A 26071.75050500 .00000417 00000+0 14203-3 0 9999 2 42803 86.4029 2.4727 0002269 79.4800 280.6652 14.34207743457366 IRIDIUM 123 1 42804U 17039B 26071.86174725 .00000044 00000+0 86395-5 0 9997 2 42804 86.3979 33.8784 0002038 85.5612 274.5817 14.34217768456142 IRIDIUM 120 1 42805U 17039C 26071.74415750 .00000033 00000+0 47120-5 0 9992 2 42805 86.4017 2.2708 0002128 88.9738 271.1702 14.34217727457354 IRIDIUM 115 1 42806U 17039D 26071.74870687 -.00000266 00000+0 -85034-4 0 9992 2 42806 86.4550 2.3839 0001783 89.6245 270.5160 14.43278413460354 IRIDIUM 118 1 42807U 17039E 26071.82369192 .00000248 00000+0 81409-4 0 9996 2 42807 86.3979 33.8922 0002218 84.1814 275.9635 14.34217844456135 IRIDIUM 117 1 42808U 17039F 26071.84271884 -.00000179 00000+0 -71015-4 0 9996 2 42808 86.3978 33.8432 0001901 84.8169 275.3244 14.34216977456168 IRIDIUM 126 1 42809U 17039G 26071.86808964 -.00000046 00000+0 -23420-4 0 9994 2 42809 86.3978 33.8820 0002002 81.7503 278.3920 14.34217431456149 IRIDIUM 124 1 42810U 17039H 26071.75214183 .00000440 00000+0 12471-3 0 9997 2 42810 86.4527 330.6972 0002064 85.1321 275.0115 14.43277359461200 IRIDIUM 128 1 42811U 17039J 26071.99836461 .00000046 00000+0 92890-5 0 9990 2 42811 86.3915 65.3591 0002143 95.0378 265.1063 14.34217584456198 IRIDIUM 121 1 42812U 17039K 26071.39873800 .00000050 00000+0 10849-4 0 9991 2 42812 86.3981 34.1047 0002236 88.6843 271.4609 14.34217853455958 IRIDIUM 133 1 42955U 17061A 26071.96030896 .00000012 00000+0 -29489-5 0 9997 2 42955 86.3918 65.4909 0002064 90.1028 270.0404 14.34217536440985 IRIDIUM 100 1 42956U 17061B 26071.95396638 .00000030 00000+0 38042-5 0 9990 2 42956 86.3917 65.4142 0002154 89.1326 271.0116 14.34217535440983 IRIDIUM 122 1 42957U 17061C 26071.99201990 .00000068 00000+0 17170-4 0 9990 2 42957 86.3914 65.3980 0002064 87.9715 272.1717 14.34217702440994 IRIDIUM 129 1 42958U 17061D 26071.52901265 .00000037 00000+0 61791-5 0 9997 2 42958 86.3917 65.6580 0002424 83.0791 277.0680 14.34217588440948 IRIDIUM 119 1 42959U 17061E 26071.98567561 .00000166 00000+0 52212-4 0 9995 2 42959 86.3916 65.4621 0002161 84.8796 275.2646 14.34219277441023 IRIDIUM 107 1 42960U 17061F 26072.00470599 .00000035 00000+0 54753-5 0 9993 2 42960 86.3917 65.4751 0001857 89.3491 270.7918 14.34217624441030 IRIDIUM 132 1 42961U 17061G 26071.52266928 .00000014 00000+0 -21167-5 0 9990 2 42961 86.3917 65.6570 0001995 90.4308 269.7116 14.34217398440962 IRIDIUM 136 1 42962U 17061H 26071.97299354 .00000060 00000+0 14318-4 0 9998 2 42962 86.3921 65.4747 0002110 86.9355 273.2083 14.34217813441049 IRIDIUM 139 1 42963U 17061J 26071.90956799 .00000019 00000+0 -37909-6 0 9993 2 42963 86.3920 65.5618 0002035 90.6048 269.5382 14.34217699441046 IRIDIUM 125 1 42964U 17061K 26071.47827001 .00000073 00000+0 19103-4 0 9992 2 42964 86.3924 65.8016 0001790 77.3541 282.7855 14.34217985440996 IRIDIUM 135 1 43070U 17083A 26071.73146698 .00000195 00000+0 62393-4 0 9994 2 43070 86.4028 2.3233 0002204 83.6794 276.4652 14.34216688430329 IRIDIUM 138 1 43071U 17083B 26071.75684259 .00000017 00000+0 -10940-5 0 9993 2 43071 86.4035 1.9943 0002064 72.6613 287.4808 14.34217488430316 IRIDIUM 116 1 43072U 17083C 26071.72513029 .00000058 00000+0 13683-4 0 9997 2 43072 86.4024 2.3141 0002208 94.2278 265.9171 14.34217368430341 IRIDIUM 130 1 43073U 17083D 26071.76318465 .00000039 00000+0 67772-5 0 9997 2 43073 86.4033 2.5636 0001931 91.0944 269.0473 14.34217828430295 IRIDIUM 151 1 43074U 17083E 26071.73781490 -.00000027 00000+0 -16686-4 0 9993 2 43074 86.4025 2.3643 0002139 85.5625 274.5816 14.34217454430318 IRIDIUM 134 1 43075U 17083F 26071.77587037 .00000017 00000+0 -10293-5 0 9996 2 43075 86.4026 2.3548 0002034 87.3514 272.7914 14.34217546430282 IRIDIUM 137 1 43076U 17083G 26071.50948196 .00000054 00000+0 12294-4 0 9997 2 43076 86.4029 2.5569 0002498 94.0253 266.1229 14.34217983430315 IRIDIUM 141 1 43077U 17083H 26071.92175080 .00000225 00000+0 73141-4 0 9996 2 43077 86.4024 2.2210 0002173 82.7721 277.3722 14.34218164430375 IRIDIUM 153 1 43078U 17083J 26071.66461652 .00000325 00000+0 10885-3 0 9997 2 43078 86.4010 330.8414 0002001 78.8449 281.2972 14.34221059431447 IRIDIUM 131 1 43079U 17083K 26071.76952795 .00000176 00000+0 55789-4 0 9999 2 43079 86.4029 2.4636 0002261 83.2146 276.9307 14.34218256430287 IRIDIUM 144 1 43249U 18030A 26071.74073461 .00000021 00000+0 44755-6 0 9995 2 43249 86.4006 330.7413 0002086 89.1697 270.9738 14.34217635416312 IRIDIUM 149 1 43250U 18030B 26071.74707726 .00000150 00000+0 46514-4 0 9991 2 43250 86.4003 330.7068 0002124 83.8364 276.3074 14.34216616416335 IRIDIUM 157 1 43251U 18030C 26071.76610442 .00000116 00000+0 34232-4 0 9998 2 43251 86.4008 330.7497 0002112 83.3075 276.8361 14.34217715416311 IRIDIUM 140 1 43252U 18030D 26071.71536377 .00000006 00000+0 -48172-5 0 9996 2 43252 86.4002 330.7835 0001924 86.1734 273.9682 14.34217447416366 IRIDIUM 145 1 43253U 18030E 26071.77244051 .00000223 00000+0 72689-4 0 9997 2 43253 86.4006 330.7321 0002041 95.1143 265.0286 14.34215576416303 IRIDIUM 146 1 43254U 18030F 26071.75341931 .00000092 00000+0 25674-4 0 9997 2 43254 86.4002 330.7524 0002165 88.8719 271.2725 14.34217930416314 IRIDIUM 148 1 43255U 18030G 26071.72170660 .00000010 00000+0 -35460-5 0 9990 2 43255 86.3999 330.8071 0002042 85.9811 274.1618 14.34217472416349 IRIDIUM 142 1 43256U 18030H 26071.75976188 .00000134 00000+0 40806-4 0 9998 2 43256 86.4005 330.6844 0002048 93.3403 266.8027 14.34217661416310 IRIDIUM 150 1 43257U 18030J 26071.72804709 .00000257 00000+0 84670-4 0 9998 2 43257 86.4008 330.8108 0002056 85.5106 274.6325 14.34216750416339 IRIDIUM 143 1 43258U 18030K 26071.77878970 .00000026 00000+0 21466-5 0 9994 2 43258 86.4009 330.8782 0002072 90.4805 269.6628 14.34217708416275 IRIDIUM 161 1 43478U 18047C 26071.66047796 .00000355 00000+0 99543-4 0 9993 2 43478 86.4497 128.8418 0002469 87.9131 272.2353 14.43276047411219 IRIDIUM 152 1 43479U 18047D 26071.68173895 .00000108 00000+0 31626-4 0 9990 2 43479 86.3970 128.6934 0002210 91.0339 269.1111 14.34217062408659 IRIDIUM 147 1 43480U 18047E 26071.68808167 .00000187 00000+0 59669-4 0 9993 2 43480 86.3968 128.6941 0002256 98.8234 261.3218 14.34217506408650 IRIDIUM 110 1 43481U 18047F 26071.69442495 .00000021 00000+0 31453-6 0 9993 2 43481 86.3975 128.7803 0002314 85.3307 274.8153 14.34217598408641 IRIDIUM 162 1 43482U 18047G 26071.65417468 .00000368 00000+0 10350-3 0 9996 2 43482 86.4494 128.7368 0002134 94.8119 265.3325 14.43277340411204 IRIDIUM 160 1 43569U 18061A 26071.98910266 .00000136 00000+0 41392-4 0 9992 2 43569 86.3913 97.0352 0002344 90.8785 269.2679 14.34218135399582 IRIDIUM 166 1 43570U 18061B 26071.59586204 .00000085 00000+0 23178-4 0 9997 2 43570 86.3912 97.1515 0002240 95.4723 264.6729 14.34217799399550 IRIDIUM 158 1 43571U 18061C 26071.56414904 -.00000026 00000+0 -16255-4 0 9997 2 43571 86.3912 97.1745 0001969 89.8810 270.2611 14.34216943399516 IRIDIUM 165 1 43572U 18061D 26072.00813030 .00000049 00000+0 10510-4 0 9992 2 43572 86.3913 97.0335 0002239 96.0325 264.1126 14.34217550399602 IRIDIUM 155 1 43573U 18061E 26071.97007499 .00000039 00000+0 69472-5 0 9993 2 43573 86.3910 96.9232 0002099 94.5445 265.5990 14.34217522399562 IRIDIUM 154 1 43574U 18061F 26072.02081598 -.00000071 00000+0 -32295-4 0 9993 2 43574 86.3913 97.0307 0002195 97.6645 262.4800 14.34217916399624 IRIDIUM 163 1 43575U 18061G 26072.00178747 .00000040 00000+0 71303-5 0 9993 2 43575 86.3910 96.9570 0002167 91.1557 268.9887 14.34217582399593 IRIDIUM 156 1 43576U 18061H 26071.55780588 -.00000025 00000+0 -15871-4 0 9997 2 43576 86.3912 97.1500 0001960 96.2748 263.8671 14.34217175399526 IRIDIUM 164 1 43577U 18061J 26071.60854655 .00000064 00000+0 15898-4 0 9991 2 43577 86.3910 97.1679 0002448 98.1273 262.0201 14.34218074399572 IRIDIUM 159 1 43578U 18061K 26071.99544521 .00000007 00000+0 -46308-5 0 9991 2 43578 86.3911 96.9443 0002221 89.1722 270.9728 14.34217489399591 IRIDIUM 180 1 43922U 19002A 26071.85540469 .00000048 00000+0 10006-4 0 9991 2 43922 86.3977 33.8420 0002161 84.3010 275.8432 14.34217648375183 IRIDIUM 176 1 43923U 19002B 26071.84875836 .00000747 00000+0 11457-3 0 9996 2 43923 86.6100 33.8011 0002547 90.6095 269.5414 14.72245794385076 IRIDIUM 168 1 43924U 19002C 26071.98860038 .00000348 00000+0 11725-3 0 9995 2 43924 86.3981 33.8605 0002159 86.6189 273.5254 14.34218781375180 IRIDIUM 173 1 43925U 19002D 26071.83637652 .00000127 00000+0 38206-4 0 9993 2 43925 86.3978 33.8170 0002068 84.4707 275.6725 14.34217921375142 IRIDIUM 169 1 43926U 19002E 26071.98705345 .00000213 00000+0 63267-4 0 9996 2 43926 86.4175 65.4063 0001542 85.1589 274.9786 14.38606419376392 IRIDIUM 172 1 43927U 19002F 26071.83003320 .00000186 00000+0 59426-4 0 9996 2 43927 86.3977 33.8269 0002322 84.6432 275.5029 14.34217964375156 IRIDIUM 175 1 43928U 19002G 26071.77624468 .00001087 00000+0 16848-3 0 9993 2 43928 86.1537 331.1968 0002723 103.7503 256.4017 14.72236487385052 IRIDIUM 171 1 43929U 19002H 26071.39239541 .00000063 00000+0 15264-4 0 9991 2 43929 86.3988 34.3059 0002146 91.7855 268.3586 14.34217888375080 IRIDIUM 170 1 43930U 19002J 26071.85493751 .00001222 00000+0 18992-3 0 9997 2 43930 86.6098 33.8016 0002633 88.0679 272.0840 14.72243609385086 IRIDIUM 167 1 43931U 19002K 26071.87443184 -.00000200 00000+0 -78347-4 0 9993 2 43931 86.3978 33.8306 0001872 93.4636 266.6774 14.34216751375158 IRIDIUM 181 1 56726U 23068S 26072.01591627 .00000188 00000+0 49968-4 0 9999 2 56726 86.4449 97.0074 0002611 92.8636 267.2864 14.43308483148561 IRIDIUM 177 1 56727U 23068T 26071.92271074 .00001648 00000+0 21345-3 0 9990 2 56727 86.2006 14.4886 0002247 75.7270 284.4201 14.80218880152127 IRIDIUM 174 1 56728U 23068U 26071.84256962 .00001326 00000+0 20642-3 0 9993 2 56728 86.6106 33.9445 0002554 79.6080 280.5425 14.72258455151849 IRIDIUM 178 1 56729U 23068V 26071.50618089 .00000633 00000+0 79848-4 0 9992 2 56729 86.6488 65.7590 0002501 98.7639 261.3866 14.80228401152069 IRIDIUM 179 1 56730U 23068W 26071.97401339 .00001280 00000+0 16500-3 0 9997 2 56730 86.6724 74.2644 0002277 95.7433 264.4048 14.80228779152130